Location: Berkeley
(37.8716°N, 122.2727°W)
Time: 09:42:18
(UTC-07:00)

Envisat - Pass Details

Date: 21 February 2019
Orbit: 764 x 766 km, 98.1° (Epoch: 20 October)

Event Time Altitude Azimuth Distance (km) Brightness Sun altitude
Rises 18:31:56 0° 156° (SSE) 3,216 6.0 -8.1°
Reaches altitude 10° 18:34:15 10° 152° (SSE) 2,294 5.3 -8.6°
Maximum altitude 18:39:12 59° 74° (ENE) 880 3.0 -9.6°
Drops below altitude 10° 18:44:12 10° 355° (N) 2,308 5.5 -10.5°
Sets 18:46:32 0° 352° (N) 3,238 6.3 -11.0°
